EW0310 Weather Reports


time (UTC)temp
F
wind
direction
speed
knots
gust
knots
rain 1hr
in
rain 24hr
in
rain mn
in
humidity
%
barometer
mb
20260504050504 41 227 0.9 2.6 0.00 0.00 0.00 72 1014.1
20260504050003 41 214 1.7 2.6 0.00 0.00 0.00 71 1014.1
20260504045504 41 194 0.9 2.6 0.00 0.00 0.00 72 1014.1
20260504045004 42 215 0.9 5.2 0.00 0.00 0.00 71 1014.1
20260504044504 42 202 0.9 2.6 0.00 0.00 0.00 71 1014.1
20260504044004 43 174 0.9 2.6 0.00 0.00 0.00 70 1014.1
20260504043503 43 204 0.9 2.6 0.00 0.00 0.00 67 1014.1
20260504043005 43 195 0.9 2.6 0.00 0.00 0.00 67 1014.1
20260504042503 44 201 1.7 6.1 0.00 0.00 0.00 64 1014.0
20260504042003 44 211 1.7 4.3 0.00 0.00 0.00 63 1014.1
20260504041503 44 198 1.7 5.2 0.00 0.00 0.00 63 1014.1
20260504041004 45 188 0.9 2.6 0.00 0.00 0.00 61 1014.0
20260504040503 45 213 0.9 5.2 0.00 0.00 0.00 61 1014.0
20260504040004 45 225 1.7 6.1 0.00 0.00 0.00 61 1014.0
20260504035503 45 269 0.9 5.2 0.00 0.00 0.00 60 1014.1
20260504035004 45 203 1.7 7.0 0.00 0.00 0.00 61 1014.1
20260504034503 44 196 0.9 5.2 0.00 0.00 0.00 61 1014.1
20260504034003 44 215 1.7 7.8 0.00 0.00 0.00 62 1014.0
20260504033504 45 222 1.7 5.2 0.00 0.00 0.00 62 1014.1
20260504032503 45 233 0.9 4.3 0.00 0.00 0.00 60 1014.1
20260504032004 45 241 1.7 5.2 0.00 0.00 0.00 60 1014.1
20260504031504 45 209 2.6 7.0 0.00 0.00 0.00 60 1014.1
20260504030504 45 225 0.0 5.2 0.00 0.00 0.00 61 1014.2
20260504030004 44 234 1.7 7.8 0.00 0.00 0.00 61 1014.1
20260504025004 44 188 0.9 2.6 0.00 0.00 0.00 64 1014.2
20260504024503 44 189 0.9 2.6 0.00 0.00 0.00 64 1014.3
20260504024004 45 210 0.9 4.3 0.00 0.00 0.00 63 1014.3
20260504023503 45 213 1.7 5.2 0.00 0.00 0.00 62 1014.3
20260504022503 45 220 0.9 5.2 0.00 0.00 0.00 61 1014.3
20260504022003 45 218 0.9 4.3 0.00 0.00 0.00 63 1014.4
20260504021504 45 223 0.9 2.6 0.00 0.00 0.00 62 1014.4
20260504021004 44 206 1.7 5.2 0.00 0.00 0.00 62 1014.3
20260504020503 45 195 0.9 2.6 0.00 0.00 0.00 64 1014.2
20260504020003 45 225 0.9 2.6 0.00 0.00 0.00 63 1014.3
20260504015504 45 211 0.9 2.6 0.00 0.00 0.00 64 1014.3
20260504015004 45 193 0.9 2.6 0.00 0.00 0.00 62 1014.2
20260504014504 45 170 1.7 5.2 0.00 0.00 0.00 61 1014.3
20260504014004 45 202 0.9 2.6 0.00 0.00 0.00 62 1014.3
20260504013503 46 223 1.7 2.6 0.00 0.00 0.00 61 1014.1
20260504013004 46 207 0.9 2.6 0.00 0.00 0.00 60 1014.1
20260504012003 46 216 1.7 5.2 0.00 0.00 0.00 59 1014.1
20260504011503 47 224 0.9 6.1 0.00 0.00 0.00 56 1014.0
20260504010503 47 186 0.9 2.6 0.00 0.00 0.00 55 1013.9
20260504010004 48 213 0.9 4.3 0.00 0.00 0.00 55 1014.0
20260504005503 48 244 1.7 7.0 0.00 0.00 0.00 54 1014.0
20260504005004 48 222 0.9 5.2 0.00 0.00 0.00 53 1014.0
20260504003503 49 208 1.7 6.1 0.00 0.00 0.00 52 1013.9
20260504003004 49 321 0.9 5.2 0.00 0.00 0.00 51 1014.0
20260504002504 49 226 1.7 7.0 0.00 0.00 0.00 52 1014.0
20260504002003 49 259 1.7 7.8 0.00 0.00 0.00 50 1013.9
20260504001504 50 265 1.7 13.0 0.00 0.00 0.00 50 1013.8
20260504001003 50 238 2.6 7.8 0.00 0.00 0.00 50 1013.8
20260504000503 50 236 3.5 8.7 0.00 0.00 0.00 49 1013.8
20260504000005 50 295 1.7 7.8 0.00 0.00 0.00 49 1013.8
20260503235503 50 262 0.9 7.8 0.00 0.00 0.00 49 1013.7
20260503235004 50 192 1.7 7.8 0.00 0.00 0.00 49 1013.7
20260503234505 51 256 2.6 5.2 0.00 0.00 0.00 48 1013.7
20260503234004 51 222 3.5 10.4 0.00 0.00 0.00 48 1013.8
20260503233504 51 251 2.6 7.8 0.00 0.00 0.00 48 1013.9
20260503233005 51 233 2.6 11.3 0.00 0.00 0.00 48 1013.7
20260503232504 51 248 0.9 5.2 0.00 0.00 0.00 47 1013.7
20260503232004 51 243 4.3 13.9 0.00 0.00 0.00 47 1013.7
20260503231504 52 268 2.6 7.0 0.00 0.00 0.00 47 1013.8
20260503231003 52 238 2.6 10.4 0.00 0.00 0.00 47 1013.7
20260503230504 52 236 1.7 6.1 0.00 0.00 0.00 46 1013.7
20260503230003 52 289 0.9 6.1 0.00 0.00 0.00 47 1013.7
20260503225004 52 282 2.6 10.4 0.00 0.00 0.00 46 1013.7
20260503224504 52 291 1.7 10.4 0.00 0.00 0.00 46 1013.7
20260503224003 52 291 3.5 10.4 0.00 0.00 0.00 46 1013.7
20260503223503 52 295 5.2 12.2 0.00 0.00 0.00 45 1013.8
20260503223004 53 253 3.5 10.4 0.00 0.00 0.00 45 1013.7
20260503222504 53 243 4.3 8.7 0.00 0.00 0.00 45 1013.8
20260503222003 53 254 4.3 11.3 0.00 0.00 0.00 45 1014.0
20260503221504 53 284 4.3 13.9 0.00 0.00 0.00 44 1014.0
20260503220004 53 302 5.2 12.2 0.00 0.00 0.00 45 1013.9
20260503215504 53 291 3.5 13.9 0.00 0.00 0.00 44 1014.0
20260503215004 53 256 3.5 10.4 0.00 0.00 0.00 45 1013.9
20260503214504 53 215 2.6 10.4 0.00 0.00 0.00 46 1013.9
20260503214003 53 266 2.6 7.8 0.00 0.00 0.00 45 1013.9
20260503213504 53 251 1.7 7.0 0.00 0.00 0.00 44 1013.9
20260503213005 53 240 3.5 10.4 0.00 0.01 0.00 43 1014.0
20260503212503 53 253 2.6 7.8 0.00 0.01 0.00 47 1013.9
20260503212004 52 282 0.9 7.0 0.00 0.01 0.00 46 1014.0
20260503211504 52 249 2.6 10.4 0.00 0.01 0.00 45 1014.1
20260503210503 53 259 3.5 11.3 0.00 0.01 0.00 44 1013.9
20260503210004 53 280 5.2 12.2 0.00 0.02 0.00 45 1014.0
20260503205504 53 283 4.3 13.9 0.00 0.02 0.00 46 1013.9
20260503205003 52 253 6.1 17.4 0.00 0.02 0.00 45 1013.9
20260503204504 52 281 4.3 10.4 0.00 0.02 0.00 46 1014.0
20260503204003 52 263 2.6 10.4 0.00 0.02 0.00 46 1014.0
20260503203503 52 269 5.2 13.9 0.00 0.02 0.00 46 1013.9
20260503203003 52 293 2.6 10.4 0.00 0.02 0.00 46 1014.0
20260503202504 53 291 5.2 11.3 0.00 0.02 0.00 45 1014.0
20260503202004 53 274 3.5 8.7 0.00 0.02 0.00 48 1014.1
20260503201504 53 265 4.3 13.0 0.00 0.02 0.00 45 1014.1
20260503201004 53 285 5.2 11.3 0.00 0.02 0.00 46 1014.1
20260503200504 54 246 5.2 14.8 0.00 0.02 0.00 44 1014.1
20260503200004 53 211 1.7 6.1 0.00 0.02 0.00 46 1014.2
20260503195504 53 270 5.2 13.9 0.00 0.02 0.00 46 1014.2
20260503195003 53 291 4.3 10.4 0.00 0.02 0.00 45 1014.4
20260503194503 53 292 4.3 18.2 0.00 0.02 0.00 46 1014.5
20260503194004 53 269 6.1 12.2 0.00 0.02 0.00 45 1014.5
20260503193004 52 298 4.3 18.2 0.00 0.02 0.00 47 1014.5
20260503192504 51 256 3.5 10.4 0.00 0.02 0.00 49 1014.6
20260503192003 51 294 4.3 13.0 0.00 0.02 0.00 47 1014.8
20260503191504 51 291 4.3 10.4 0.00 0.02 0.00 45 1014.8
20260503191004 52 251 3.5 12.2 0.00 0.02 0.00 45 1014.9
20260503190504 52 258 5.2 13.9 0.00 0.02 0.00 47 1014.9
20260503185504 52 278 5.2 15.6 0.00 0.02 0.00 47 1014.9
20260503185004 51 304 3.5 12.2 0.00 0.02 0.00 48 1014.9
20260503184503 51 276 2.6 10.4 0.00 0.02 0.00 50 1014.9
20260503184004 51 260 5.2 11.3 0.00 0.02 0.00 47 1015.1
20260503183504 52 278 4.3 13.9 0.00 0.02 0.00 45 1015.2
20260503182504 51 256 2.6 11.3 0.00 0.02 0.00 50 1015.1
20260503182004 51 267 6.1 12.2 0.00 0.02 0.00 47 1015.1
20260503181504 52 296 6.1 12.2 0.00 0.02 0.00 47 1015.2
20260503181004 51 312 2.6 8.7 0.00 0.02 0.00 49 1015.1
20260503180504 51 260 4.3 12.2 0.00 0.02 0.00 49 1015.2
20260503180005 51 316 2.6 8.7 0.00 0.02 0.00 49 1015.2
20260503175504 51 258 5.2 13.9 0.00 0.02 0.00 50 1015.4
20260503174504 50 294 2.6 10.4 0.00 0.02 0.00 49 1015.4
20260503174003 50 252 5.2 10.4 0.00 0.02 0.00 53 1015.6
20260503173504 49 270 5.2 11.3 0.00 0.02 0.00 52 1015.5
20260503173003 49 283 6.1 12.2 0.00 0.02 0.00 51 1015.4
20260503172504 49 303 5.2 11.3 0.00 0.02 0.00 50 1015.7
20260503172003 49 288 6.1 12.2 0.00 0.02 0.00 52 1015.6
20260503151004 45 246 2.6 11.3 0.00 0.02 0.00 64 1016.3
20260503150503 44 284 6.1 13.0 0.00 0.02 0.00 64 1016.3
20260503131003 39 305 2.6 8.7 0.00 0.02 0.00 78 1016.1
20260503110504 31 302 2.6 7.0 0.00 0.02 0.00 90 1015.3
20260503090503 31 332 1.7 7.0 0.00 0.02 0.00 90 1014.5
20260503081503 31 306 0.0 2.6 0.00 0.02 0.00 90 1014.3
20260503081003 31 299 0.9 2.6 0.00 0.02 0.00 90 1014.3
20260503080504 31 305 0.9 2.6 0.00 0.02 0.00 90 1014.3
20260503072504 32 301 0.9 2.6 0.00 0.02 0.00 89 1014.0
20260503072003 32 299 0.9 2.6 0.00 0.02 0.00 89 1014.0
20260503071504 32 307 0.9 4.3 0.00 0.02 0.00 89 1013.9
20260503071004 32 299 0.9 6.1 0.00 0.02 0.00 89 1014.0
20260503070504 32 303 0.9 2.6 0.00 0.02 0.00 89 1014.0
20260503055003 33 298 0.0 1.7 0.00 0.02 0.00 88 1014.1
20260503054504 33 301 0.9 6.1 0.00 0.02 0.00 87 1014.1
20260503054003 33 309 0.0 6.1 0.00 0.02 0.00 88 1014.2
20260503053504 33 292 0.9 4.3 0.00 0.02 0.00 88 1014.2
20260503053003 33 307 1.7 2.6 0.00 0.02 0.00 88 1014.2